Volver al catálogo

STARLINK-35141

ActivoComunicacionesVLEO
NORAD 65644·PAYLOAD·🇺🇸 United States

Lanzado Sep 18, 2025 desde Cape Canaveral Space Force Station

Loading…

Próximos Pases (próximas 24 horas)

TLE

ActualizadoSource: CelesTrak SupGP

Época: Sep 15, 2026, 03:23 UTC

1 65644C 25210Y   26258.14145833  .00051142  00000+0  16449-2 0  2583
2 65644  53.1561 146.3522 0001303  81.5816  55.8692 15.31669577    13

Sigue STARLINK-35141 en tiempo real con AllMySat

Download on the App Store